Detroit Lakes, MN

3:24 PM CDT on April 26, 2017 (GMT -0500)
Detroit Lakes

Weather History for KDTL - February, 2013

Change the Weather History Date:

Sunday, February 24, 2013

  Actual Average Record
Temperature  
Mean Temperature 16 °F -  
Max Temperature 28 °F 27 °F 56 °F (1958)
Min Temperature 3 °F 5 °F -35 °F (1955)
Degree Days  
Heating Degree Days 50    
Moisture  
Dew Point 9 °F    
Average Humidity 78    
Maximum Humidity 100    
Minimum Humidity 51    
Precipitation  
Precipitation 0.00 in - - ()
Sea Level Pressure  
Sea Level Pressure 29.99 in    
Wind  
Wind Speed 1 mph (SSE)    
Max Wind Speed 8 mph    
Max Gust Speed -    
Visibility 6 miles    
Events Fog , Snow    
Averages and records for this station are not official NWS values.
T = Trace of Precipitation, MM = Missing Value Source: NWS Daily Summary

Daily Weather History Graph

Daily Weather History Graph

Search for Another Location

Airport or City:

Trip Planner

Search our weather history database for the weather conditions in past years. The results will help you decide how hot, cold, wet, or windy it might be!

Date:

Astronomy

Feb. 24, 2013 Rise Set
Actual Time 7:11 AM CST 6:02 PM CST
Civil Twilight 6:41 AM CST 6:32 PM CST
Nautical Twilight 6:06 AM CST 7:08 PM CST
Astronomical Twilight 5:30 AM CST 7:43 PM CST
Moon 5:14 PM CST (2/24) 6:11 AM CST (2/24)
Length of Visible Light 11h 51m
Length of Day
10h 50m
Waxing Gibbous, 99% of the Moon is Illuminated
Feb 24
Waxing Gibbous
Feb 25
Full
Mar 4
Last Quarter
Mar 11
New
Mar 19
First Quarter

Hourly Weather History & Observations

Time (CST) Temp. Windchill Dew Point Humidity Pressure Visibility Wind Dir Wind Speed Gust Speed Precip Events Conditions
12:15 AM 6.8 °F - 5.0 °F 92% 29.92 in 0.5 mi Calm Calm - N/A Fog Light Freezing Fog
12:36 AM 6.8 °F - 5.0 °F 92% 29.92 in 0.5 mi Calm Calm - N/A Fog Light Freezing Fog
12:55 AM 6.8 °F - 5.0 °F 92% 29.93 in 0.8 mi Calm Calm - N/A   Overcast
1:15 AM 5.0 °F - 3.2 °F 92% 29.93 in 4.0 mi Calm Calm - N/A   Overcast
1:36 AM 5.0 °F - 3.2 °F 92% 29.93 in 0.2 mi Calm Calm - N/A Fog Light Freezing Fog
1:55 AM 5.0 °F - 3.2 °F 92% 29.94 in 0.2 mi Calm Calm - N/A Fog Light Freezing Fog
2:16 AM 5.0 °F - 3.2 °F 92% 29.94 in 0.2 mi Calm Calm - N/A Fog Light Freezing Fog
2:36 AM 5.0 °F - 3.2 °F 92% 29.94 in 0.2 mi Calm Calm - N/A Fog Light Freezing Fog
2:55 AM 5.0 °F - 3.2 °F 92% 29.94 in 0.2 mi Calm Calm - N/A Fog Light Freezing Fog
3:16 AM 3.2 °F - 1.4 °F 92% 29.94 in 0.2 mi Calm Calm - N/A Fog Light Freezing Fog
3:36 AM 3.2 °F - 1.4 °F 92% 29.94 in 0.2 mi Calm Calm - N/A Fog Light Freezing Fog
3:55 AM 3.2 °F - 1.4 °F 92% 29.94 in 0.2 mi Calm Calm - N/A Fog Light Freezing Fog
4:16 AM 3.2 °F - 1.4 °F 92% 29.94 in 0.2 mi Calm Calm - N/A Fog Light Freezing Fog
4:36 AM 3.2 °F - 1.4 °F 92% 29.94 in 0.2 mi Calm Calm - N/A Fog Light Freezing Fog
4:55 AM 5.0 °F - 1.4 °F 85% 29.95 in 0.5 mi Calm Calm - N/A Fog Light Freezing Fog
5:16 AM 3.2 °F - 1.4 °F 92% 29.96 in 0.2 mi Calm Calm - N/A Fog Light Freezing Fog
5:36 AM 3.2 °F - 1.4 °F 92% 29.97 in 0.8 mi Calm Calm - N/A   Overcast
5:55 AM 3.2 °F - 1.4 °F 92% 29.98 in 0.5 mi Calm Calm - N/A Fog Light Freezing Fog
6:16 AM 5.0 °F - 3.2 °F 92% 29.98 in 4.0 mi Calm Calm - N/A   Overcast
6:36 AM 5.0 °F - 3.2 °F 92% 29.98 in 0.5 mi Calm Calm - N/A Snow Light Snow
7:16 AM 5.0 °F - 3.2 °F 92% 29.98 in 0.2 mi Calm Calm - N/A Fog Light Freezing Fog
7:36 AM 5.0 °F - 3.2 °F 92% 29.99 in 0.2 mi Calm Calm - N/A Fog Light Freezing Fog
7:55 AM 5.0 °F - 3.2 °F 92% 29.99 in 0.2 mi Calm Calm - N/A Fog Light Freezing Fog
8:16 AM 5.0 °F - 3.2 °F 92% 30.00 in 0.2 mi Calm Calm - N/A Fog Light Freezing Fog
8:35 AM 5.0 °F - 3.2 °F 92% 30.00 in 0.2 mi Calm Calm - N/A Fog Light Freezing Fog
8:55 AM 8.6 °F - 5.0 °F 85% 30.00 in 0.2 mi Calm Calm - N/A Fog Light Freezing Fog
9:16 AM 10.4 °F - 8.6 °F 92% 30.00 in 2.0 mi Calm Calm - N/A Snow Light Snow
9:35 AM 10.4 °F - 10.4 °F 100% 30.00 in 5.0 mi Calm Calm - N/A   Scattered Clouds
9:55 AM 12.2 °F - 10.4 °F 92% 30.01 in 7.0 mi Calm Calm - N/A   Clear
10:16 AM 12.2 °F - 10.4 °F 92% 30.01 in 7.0 mi Calm Calm - N/A   Clear
10:35 AM 14.0 °F - 14.0 °F 100% 30.01 in 7.0 mi Calm Calm - N/A   Clear
10:55 AM 17.6 °F - 15.8 °F 93% 30.01 in 7.0 mi Calm Calm - N/A   Clear
11:16 AM 19.4 °F - 19.4 °F 100% 30.01 in 10.0 mi Calm Calm - N/A   Clear
11:35 AM 21.2 °F 14.9 °F 19.4 °F 93% 30.01 in 10.0 mi SSE 4.6 mph - N/A   Clear
11:55 AM 21.2 °F 16.4 °F 21.2 °F 100% 30.02 in 10.0 mi SSE 3.5 mph - N/A   Clear
12:16 PM 23.0 °F 17.0 °F 21.2 °F 93% 30.02 in 10.0 mi SSE 4.6 mph - N/A   Clear
12:35 PM 23.0 °F 15.8 °F 21.2 °F 93% 30.02 in 10.0 mi SSE 5.8 mph - N/A   Clear
12:55 PM 23.0 °F 15.8 °F 21.2 °F 93% 30.02 in 10.0 mi SSE 5.8 mph - N/A   Clear
1:16 PM 26.6 °F 18.2 °F 14.0 °F 59% 30.02 in 10.0 mi SSE 8.1 mph - N/A   Clear
1:35 PM 28.4 °F 22.2 °F 12.2 °F 51% 30.01 in 10.0 mi SSE 5.8 mph - N/A   Clear
1:55 PM 28.4 °F 24.6 °F 12.2 °F 51% 30.01 in 10.0 mi South 3.5 mph - N/A   Clear
2:16 PM 28.4 °F 23.3 °F 12.2 °F 51% 30.00 in 10.0 mi South 4.6 mph - N/A   Clear
2:35 PM 28.4 °F 23.3 °F 14.0 °F 55% 30.00 in 10.0 mi South 4.6 mph - N/A   Clear
2:56 PM 28.4 °F 23.3 °F 12.2 °F 51% 30.00 in 10.0 mi South 4.6 mph - N/A   Clear
3:16 PM 28.4 °F 22.2 °F 14.0 °F 55% 30.00 in 10.0 mi SE 5.8 mph - N/A   Clear
3:35 PM 28.4 °F 21.2 °F 14.0 °F 55% 30.00 in 10.0 mi SE 6.9 mph - N/A   Clear
3:56 PM 28.4 °F 22.2 °F 14.0 °F 55% 30.00 in 10.0 mi SE 5.8 mph - N/A   Clear
4:16 PM 28.4 °F 22.2 °F 14.0 °F 55% 30.00 in 10.0 mi SSE 5.8 mph - N/A   Clear
4:35 PM 28.4 °F 21.2 °F 14.0 °F 55% 30.00 in 10.0 mi SSE 6.9 mph - N/A   Clear
4:56 PM 28.4 °F 21.2 °F 12.2 °F 51% 30.01 in 10.0 mi South 6.9 mph - N/A   Clear
5:16 PM 26.6 °F 18.2 °F 12.2 °F 55% 30.00 in 10.0 mi SSE 8.1 mph - N/A   Clear
5:35 PM 26.6 °F 21.2 °F 12.2 °F 55% 30.01 in 10.0 mi South 4.6 mph - N/A   Clear
5:56 PM 24.8 °F 17.9 °F 12.2 °F 59% 30.01 in 10.0 mi South 5.8 mph - N/A   Clear
6:16 PM 23.0 °F 17.0 °F 12.2 °F 63% 30.02 in 10.0 mi South 4.6 mph - N/A   Clear
6:35 PM 23.0 °F 17.0 °F 10.4 °F 59% 30.02 in 10.0 mi SSE 4.6 mph - N/A   Clear
6:56 PM 23.0 °F - 10.4 °F 59% 30.02 in 10.0 mi Calm Calm - N/A   Clear
7:15 PM 21.2 °F - 10.4 °F 63% 30.03 in 10.0 mi Calm Calm - N/A   Clear
7:36 PM 19.4 °F 14.3 °F 8.6 °F 63% 30.04 in 10.0 mi SW 3.5 mph - N/A   Clear
7:56 PM 19.4 °F 14.3 °F 8.6 °F 63% 30.04 in 10.0 mi SW 3.5 mph - N/A   Clear
8:15 PM 21.2 °F 16.4 °F 8.6 °F 58% 30.03 in 10.0 mi SSE 3.5 mph - N/A   Clear
8:36 PM 17.6 °F - 8.6 °F 68% 30.04 in 10.0 mi Calm Calm - N/A   Clear
8:55 PM 17.6 °F 10.7 °F 8.6 °F 68% 30.03 in 10.0 mi South 4.6 mph - N/A   Clear
9:15 PM 17.6 °F 12.3 °F 8.6 °F 68% 30.03 in 10.0 mi South 3.5 mph - N/A   Clear
9:36 PM 17.6 °F 10.7 °F 8.6 °F 68% 30.03 in 10.0 mi South 4.6 mph - N/A   Clear
9:55 PM 17.6 °F 10.7 °F 10.4 °F 73% 30.02 in 10.0 mi SSE 4.6 mph - N/A   Scattered Clouds
10:15 PM 15.8 °F 7.2 °F 8.6 °F 73% 30.02 in 10.0 mi SSE 5.8 mph - N/A   Mostly Cloudy
10:36 PM 14.0 °F - 8.6 °F 79% 30.03 in 10.0 mi Calm Calm - N/A   Mostly Cloudy
10:55 PM 17.6 °F 12.3 °F 10.4 °F 73% 30.03 in 10.0 mi SSE 3.5 mph - N/A   Scattered Clouds
11:15 PM 17.6 °F 12.3 °F 10.4 °F 73% 30.03 in 10.0 mi SSE 3.5 mph - N/A   Clear
11:36 PM 17.6 °F - 10.4 °F 73% 30.03 in 10.0 mi Calm Calm - N/A   Clear
11:55 PM 17.6 °F - 10.4 °F 73% 30.03 in 10.0 mi Calm Calm - N/A   Scattered Clouds